Location: ??????
(38.1303°N, 24.0039°E)
Time: 12:25:59
(UTC+00:00)

Cosmos 1805 Rocket - Pass Details

Date: 20 June 2021
Orbit: 606 x 630 km, 82.5° (Epoch: 01 August)

Event Time Altitude Azimuth Distance (km) Brightness Sun altitude
Exits shadow 02:03:59 - 178° (S) 2,838 6.6 -9.9°
Reaches altitude 10° 02:06:08 10° 175° (S) 1,965 5.8 -9.6°
Maximum altitude 02:10:26 64° 94° (E) 686 4.0 -9.0°
Drops below altitude 10° 02:14:48 10° 14° (NNE) 1,995 7.0 -8.3°
Sets 02:17:04 0° 11° (N) 2,909 7.9 -7.9°
